KG1ZR Weather Reports


Display with metric or nautical units.
time (UTC)temp
F
wind
direction
speed
MPH
gust
MPH
rain 1hr
in
rain 24hr
in
rain mn
in
humidity
%
barometer
mb
20260510205601 59 153 3.0 7.0 0.00 0.19 0.03 77 1009.8
20260510204601 60 279 3.0 6.0 0.00 0.20 0.03 76 1009.8
20260510203600 60 154 3.0 9.0 0.00 0.20 0.03 76 1009.7
20260510202601 61 209 2.0 8.0 0.00 0.21 0.03 76 1009.8
20260510201601 62 218 4.0 8.0 0.00 0.21 0.03 73 1009.6
20260510200600 63 245 5.0 11.0 0.00 0.21 0.03 69 1009.8
20260510195602 64 254 4.0 11.0 0.00 0.22 0.03 70 1009.7
20260510194601 64 226 5.0 10.0 0.00 0.22 0.03 68 1009.6
20260510193601 64 230 5.0 12.0 0.00 0.22 0.03 69 1009.4
20260510192601 63 240 4.0 7.0 0.00 0.22 0.03 70 1009.5
20260510191601 63 188 4.0 12.0 0.00 0.23 0.03 71 1009.6
20260510190601 63 317 4.0 12.0 0.00 0.23 0.03 71 1009.8
20260510185601 63 280 5.0 11.0 0.01 0.23 0.03 73 1009.8
20260510184601 63 203 3.0 10.0 0.01 0.23 0.03 74 1010.0
20260510183601 63 176 4.0 10.0 0.01 0.23 0.03 74 1010.0
20260510182601 62 239 5.0 11.0 0.01 0.23 0.03 74 1010.2
20260510182039 62 246 5.0 11.0 0.01 0.23 0.03 74 1010.3
20260510180601 62 221 4.0 10.0 0.01 0.23 0.03 76 1010.2
20260510175601 62 194 4.0 8.0 0.00 0.22 0.02 76 1010.4
20260510174601 62 168 3.0 10.0 0.00 0.22 0.02 76 1010.3
20260510173601 62 125 4.0 10.0 0.00 0.22 0.02 76 1010.3
20260510173035 62 111 4.0 9.0 0.00 0.22 0.02 76 1010.4
20260510172532 61 163 3.0 9.0 0.00 0.22 0.02 76 1010.5
20260510170601 60 216 4.0 9.0 0.00 0.22 0.02 76 1010.6
20260510165601 60 277 4.0 8.0 0.00 0.22 0.02 76 1010.7
20260510164601 58 260 3.0 9.0 0.00 0.22 0.02 75 1010.5
20260510163601 58 238 4.0 9.0 0.00 0.22 0.02 74 1010.6
20260510163038 56 196 4.0 8.0 0.00 0.22 0.02 72 1010.7
20260510161601 55 213 4.0 9.0 0.00 0.22 0.02 70 1010.9
20260510160601 55 233 4.0 9.0 0.00 0.22 0.02 70 1011.2
20260510155600 55 142 3.0 8.0 0.00 0.22 0.02 67 1011.2
20260510154601 54 213 2.0 7.0 0.00 0.22 0.02 64 1011.2
20260510153600 53 220 2.0 6.0 0.00 0.22 0.02 64 1011.3
20260510152600 53 182 2.0 5.0 0.00 0.22 0.02 61 1011.3
20260510151601 53 205 3.0 7.0 0.00 0.22 0.02 60 1011.4
20260510150559 53 229 4.0 8.0 0.00 0.22 0.02 59 1011.4
20260510145558 53 139 4.0 10.0 0.00 0.22 0.02 59 1011.4
20260510144558 53 175 4.0 10.0 0.00 0.22 0.02 58 1011.6
20260510143558 53 162 4.0 10.0 0.00 0.22 0.02 57 1011.5
20260510142558 53 258 4.0 10.0 0.00 0.22 0.02 56 1011.5
20260510141558 53 294 4.0 10.0 0.00 0.22 0.02 56 1011.4
20260510140558 53 237 4.0 9.0 0.00 0.22 0.02 56 1011.2
20260510135558 53 148 3.0 10.0 0.00 0.22 0.02 56 1011.1
20260510134558 52 179 4.0 10.0 0.00 0.22 0.02 56 1011.2
20260510133556 52 172 4.0 9.0 0.00 0.22 0.02 56 1011.2
20260510132556 52 192 4.0 9.0 0.00 0.22 0.02 57 1011.2
20260510131556 51 188 3.0 8.0 0.00 0.22 0.02 57 1011.3
20260510131034 51 203 4.0 8.0 0.00 0.22 0.02 57 1011.3
20260510125556 51 169 3.0 7.0 0.00 0.22 0.02 57 1011.2
20260510124557 51 186 2.0 7.0 0.00 0.22 0.02 57 1011.3
20260510123556 50 223 2.0 7.0 0.00 0.22 0.02 58 1011.4
20260510122554 50 178 3.0 7.0 0.00 0.22 0.02 57 1011.1
20260510121555 50 242 3.0 6.0 0.00 0.22 0.02 58 1011.2
20260510120554 50 224 3.0 6.0 0.00 0.22 0.02 58 1011.2
20260510115554 50 224 3.0 8.0 0.00 0.22 0.02 58 1011.1
20260510114554 49 242 4.0 9.0 0.00 0.22 0.02 58 1011.2
20260510113554 49 205 3.0 9.0 0.00 0.22 0.02 58 1010.8
20260510112554 49 202 3.0 6.0 0.00 0.22 0.02 58 1010.3
20260510111554 49 172 3.0 7.0 0.00 0.22 0.02 58 1010.0
20260510110745 49 171 2.0 6.0 0.00 0.22 0.02 58 1010.2
20260510104548 49 154 2.0 5.0 0.00 0.22 0.02 58 1010.0
20260510103548 49 93 2.0 6.0 0.00 0.22 0.02 58 1010.1
20260510102548 49 232 1.0 3.0 0.00 0.22 0.02 58 1010.2
20260510101548 49 113 1.0 3.0 0.01 0.22 0.02 58 1010.0
20260510100547 49 169 1.0 3.0 0.01 0.22 0.02 58 1010.2
20260510095548 49 149 0.0 2.0 0.01 0.22 0.02 58 1010.3
20260510094548 49 163 0.0 2.0 0.01 0.22 0.02 58 1010.3
20260510093548 49 188 0.0 2.0 0.01 0.22 0.02 58 1010.3
20260510092547 49 182 1.0 5.0 0.01 0.22 0.02 58 1010.2
20260510091542 49 180 2.0 5.0 0.00 0.21 0.01 58 1010.3
20260510090542 49 155 2.0 5.0 0.00 0.21 0.01 58 1010.2
20260510085541 49 170 2.0 5.0 0.00 0.21 0.01 58 1010.2
20260510084542 49 205 2.0 4.0 0.00 0.21 0.01 58 1010.6
20260510083543 49 178 1.0 5.0 0.00 0.21 0.01 58 1010.5
20260510082542 49 221 1.0 4.0 0.00 0.21 0.01 58 1010.5
20260510081540 49 146 1.0 4.0 0.00 0.21 0.01 58 1010.3
20260510080540 49 209 1.0 5.0 0.00 0.21 0.01 58 1010.3
20260510080029 49 153 2.0 6.0 0.00 0.21 0.01 58 1010.2
20260510074534 49 161 2.0 7.0 0.00 0.21 0.01 58 1010.2
20260510073534 49 94 2.0 4.0 0.00 0.21 0.01 58 1010.5
20260510072533 49 205 2.0 6.0 0.00 0.21 0.01 58 1010.7
20260510072012 49 218 2.0 6.0 0.00 0.21 0.01 58 1010.7
20260510070532 48 218 2.0 6.0 0.00 0.21 0.01 58 1010.8
20260510065532 48 215 3.0 8.0 0.00 0.21 0.01 58 1010.9
20260510064532 48 206 3.0 8.0 0.00 0.21 0.01 58 1010.9
20260510063530 48 170 3.0 8.0 0.00 0.21 0.01 59 1011.1
20260510062529 48 181 4.0 8.0 0.00 0.21 0.01 59 1011.1
20260510062019 48 171 4.0 9.0 0.00 0.21 0.01 59 1011.1
20260510060528 47 178 4.0 8.0 0.00 0.21 0.01 59 1011.1
20260510055530 47 225 3.0 8.0 0.00 0.21 0.01 59 1011.1
20260510054528 47 178 4.0 8.0 0.00 0.21 0.01 60 1011.1
20260510053529 47 203 4.0 8.0 0.00 0.21 0.01 60 1011.2
20260510052530 46 218 2.0 7.0 0.00 0.21 0.01 60 1011.1
20260510051529 46 205 2.0 7.0 0.01 0.21 0.01 61 1011.2
20260510051020 45 175 1.0 7.0 0.01 0.21 0.01 61 1011.2
20260510045529 44 115 1.0 3.0 0.01 0.21 0.01 61 1011.2
20260510044528 44 75 0.0 2.0 0.01 0.21 0.01 62 1011.3
20260510043529 44 75 0.0 2.0 0.01 0.21 0.01 62 1011.3
20260510042529 44 75 0.0 2.0 0.01 0.21 0.01 62 1011.6
20260510041529 44 75 0.0 3.0 0.00 0.20 0.00 62 1011.5
20260510040529 44 75 1.0 3.0 0.00 0.20 0.00 62 1011.5
20260510035529 44 145 0.0 3.0 0.00 0.20 0.20 63 1011.6
20260510034529 44 137 0.0 2.0 0.00 0.20 0.20 63 1011.7
20260510034003 43 78 0.0 0.0 0.00 0.20 0.20 63 1011.9
20260510032529 43 78 0.0 0.0 0.00 0.20 0.20 63 1012.0
20260510031530 43 78 0.0 0.0 0.00 0.20 0.20 63 1012.2
20260510030528 43 78 0.0 0.0 0.00 0.20 0.20 63 1012.2
20260510025529 43 78 0.0 1.0 0.00 0.20 0.20 63 1012.1
20260510024529 43 78 0.0 3.0 0.00 0.20 0.20 64 1012.1
20260510023528 43 82 0.0 3.0 0.00 0.20 0.20 64 1012.1
20260510023013 43 55 0.0 3.0 0.00 0.20 0.20 64 1012.2
20260510021529 43 55 0.0 2.0 0.00 0.20 0.20 64 1012.4
20260510020529 43 55 0.0 4.0 0.00 0.20 0.20 64 1012.5
20260510015528 43 68 1.0 4.0 0.00 0.20 0.20 64 1012.4
20260510014529 43 53 2.0 5.0 0.01 0.20 0.20 65 1012.4
20260510014006 43 73 1.0 4.0 0.01 0.20 0.20 65 1012.5
20260510012528 43 78 2.0 8.0 0.03 0.20 0.20 65 1012.6
20260510011528 43 77 2.0 9.0 0.05 0.20 0.20 65 1012.6
20260510010529 43 79 3.0 9.0 0.07 0.20 0.20 65 1012.4
20260510005529 43 59 1.0 10.0 0.08 0.20 0.20 66 1012.6
20260510004528 43 80 3.0 10.0 0.08 0.19 0.19 66 1012.6
20260510003529 43 90 6.0 13.0 0.08 0.19 0.19 66 1012.5
20260510002528 43 110 5.0 12.0 0.07 0.17 0.16 66 1012.4
20260510001528 43 88 4.0 9.0 0.05 0.15 0.15 66 1012.4
20260510001010 43 121 4.0 10.0 0.03 0.13 0.13 67 1012.5
20260509235529 43 107 3.0 6.0 0.02 0.12 0.12 67 1012.4
20260509235445 43 101 3.0 5.0 0.01 0.11 0.11 67 1012.6
20260509233529 43 82 2.0 5.0 0.01 0.11 0.11 68 1012.7
20260509232528 43 69 2.0 5.0 0.00 0.10 0.10 68 1012.8
20260509231529 43 101 1.0 4.0 0.00 0.10 0.10 68 1012.9
20260509230529 43 135 2.0 7.0 0.00 0.10 0.10 68 1013.0
20260509225528 43 134 2.0 5.0 0.01 0.10 0.10 68 1013.1
20260509225006 43 107 2.0 6.0 0.01 0.10 0.10 69 1013.3
20260509223529 43 187 1.0 4.0 0.02 0.10 0.10 69 1013.3
20260509222528 43 108 3.0 8.0 0.03 0.10 0.10 69 1013.1
20260509222005 44 92 3.0 8.0 0.04 0.10 0.10 70 1013.0
20260509220529 44 82 2.0 6.0 0.05 0.10 0.10 70 1013.0
20260509215529 44 86 3.0 7.0 0.05 0.09 0.09 71 1013.0
20260509214529 44 87 3.0 7.0 0.06 0.09 0.09 71 1013.0
20260509213530 44 80 3.0 7.0 0.05 0.08 0.08 72 1012.8
20260509212528 44 103 4.0 8.0 0.05 0.07 0.07 73 1012.9
20260509211529 44 105 3.0 6.0 0.04 0.06 0.06 72 1013.1
20260509210529 44 132 3.0 7.0 0.03 0.05 0.05 73 1013.3